#timestamp,LO_Frequency,Hit,StdDev 
1677078015.4,286046998.6,N
1677078035.2,286047000.4,N
1677078055.1,286047000.6,N
1677078056.0,286047000.6,N
1677078075.8,286047000.6,N
1677078095.7,286047000.4,N
1677078115.5,286047000.6,N
1677078135.3,286046999.9,N
1677078155.2,286047001.1,N
1677078175.0,286047000.8,N
1677078175.9,286047000.8,N
1677078195.8,286047001.2,N
1677078215.6,286047000.7,N
1677078235.4,286047000.5,N
1677078255.3,286046999.9,N
1677078275.1,286047000.8,N
1677078295.9,286046999.5,N
1677078315.7,286046996.9,N
1677078335.5,286046998.9,N
1677078355.4,286047001.1,N
1677078375.2,286046998.5,N
1677078395.0,286046998.9,N
1677078395.9,286046998.9,N
1677078415.8,286046998.1,N
1677078435.6,286047000.7,N
1677078455.5,286047000.5,N
1677078475.3,286047000.6,N
1677078495.1,286047001.0,N
1677078515.9,286047000.3,N
1677078535.7,286047000.2,N
1677078555.5,286047002.5,N
1677078575.4,286046999.7,N
1677078595.2,286047002.7,N
1677078615.1,286047002.4,N
1677078616.0,286047002.4,N
1677078635.8,286047002.0,N
1677078655.6,286047002.1,N
1677078675.5,286047002.3,N
1677078695.3,286047000.0,N
1677078715.1,286046999.7,N
1677078735.9,286047000.3,N
1677078755.7,286047002.2,N
1677078775.6,286047003.8,N
1677078795.4,286047001.7,N
1677078815.3,286047001.8,N
1677078835.1,286047001.5,N
1677078855.8,286047001.9,N
1677078875.7,286047001.3,N
1677078895.5,286047001.8,N
1677078915.4,286047001.7,N
1677078935.2,286047002.5,N
1677078955.0,286047001.4,N
1677078955.9,286047001.4,N
1677078975.8,286047004.2,Y
1677078995.6,286047002.7,P
1677079015.5,286046999.9,N
1677079035.3,286047002.0,N
1677079055.1,286047002.7,N
1677079075.9,286047002.1,N
1677079095.7,286047002.1,N
1677079115.5,286047001.9,N
1677079135.4,286047002.3,N
1677079155.2,286047002.3,N
1677079175.1,286047002.7,Y
1677079176.0,286047002.7,P
1677079195.8,286046998.7,P
1677079215.6,286046999.0,N
1677079235.5,286046999.4,N
1677079255.3,286046998.9,N
1677079275.1,286047001.1,N
1677079295.9,286047000.2,N
1677079315.7,286047000.3,N
1677079335.6,286047001.0,N
1677079355.4,286046999.0,N
1677079375.2,286046998.4,N
1677079395.1,286046998.6,N
1677079396.0,286046998.6,N
1677079415.8,286047001.0,N
1677079435.6,286047000.3,N
1677079455.5,286047000.4,N
1677079475.3,286047000.0,N
1677079495.2,286047002.4,N
1677079515.9,286046999.7,N
1677079535.7,286047002.8,N
1677079555.6,286047002.8,N
1677079575.4,286047002.8,N
1677079595.2,286047002.7,N
1677079615.1,286046999.7,N
1677079616.0,286046999.7,N
1677079635.8,286047000.1,N
1677079655.7,286046999.7,N
1677079675.5,286047000.2,N
1677079695.3,286047002.6,N
1677079715.2,286047002.7,N
1677079735.0,286047001.9,N
1677079735.9,286047001.9,N
1677079755.8,286047004.3,N
1677079775.6,286047001.4,N
1677079795.4,286047001.9,N
1677079815.3,286047004.2,N
1677079835.1,286047004.3,N
1677079855.9,286047004.0,N
1677079875.7,286047001.4,N
1677079895.5,286047004.3,N
1677079915.4,286047003.6,N
1677079935.2,286047005.4,Y
1677079955.0,286047004.0,P
1677079955.9,286047004.0,P
1677079975.8,286047005.9,P
1677079995.6,286047003.9,N
1677080015.5,286047001.7,N
1677080035.3,286047001.5,N
1677080055.1,286047002.0,N
1677080075.9,286047002.0,N
1677080095.7,286047002.7,N
1677080115.5,286047000.9,N
1677080135.4,286047002.6,N
1677080155.2,286047002.4,N
1677080175.1,286047002.6,N
1677080176.0,286047002.6,N
1677080195.8,286047002.0,N
1677080215.6,286047004.0,Y
1677080235.5,286047000.6,P
1677080255.3,286047000.0,N
1677080275.2,286047000.3,N
1677080295.9,286046998.3,N
1677080315.7,286046998.4,N
1677080335.6,286046999.6,N
1677080355.4,286046999.2,N
1677080375.2,286046997.2,N
1677080395.1,286046998.7,N
1677080396.0,286046998.7,N
1677080415.8,286047001.1,N
1677080435.7,286047000.7,N
1677080455.5,286047001.0,N
1677080475.3,286046999.0,N
1677080495.2,286046998.9,N
1677080515.9,286046996.6,N
1677080535.7,286046998.5,N
1677080555.6,286046998.1,N
1677080575.4,286047000.7,N
1677080595.3,286046998.2,N
1677080615.1,286046998.7,N
1677080616.0,286046998.7,N
1677080635.8,286046998.7,N
1677080655.7,286047001.1,N
1677080675.5,286046998.3,N
1677080695.3,286047001.2,N
1677080715.2,286046998.6,N
1677080735.0,286046999.9,N
1677080735.9,286046999.9,N
1677080755.8,286047000.5,N
1677080775.6,286046998.9,N
1677080795.4,286046998.5,N
1677080815.3,286046998.2,N
1677080865.1,286046998.6,E
1677080875.0,286047002.8,N
1677080876.0,286047002.8,P
1677080895.8,286047002.7,P
1677080915.6,286047001.6,Y
1677080935.5,286046999.7,P
1677080955.3,286047000.9,N
1677080975.1,286047000.9,N
1677080995.9,286046998.2,N
1677081015.7,286046998.5,N
1677081035.6,286046998.4,N
1677081055.4,286046998.6,N
1677081075.2,286046998.5,N
1677081095.1,286046999.2,N
1677081096.0,286046999.2,N
1677081115.8,286046996.5,N
1677081135.6,286046999.5,N
1677081155.5,286046998.5,N
1677081175.3,286046999.1,N
1677081195.2,286046998.3,N
1677081215.9,286046998.1,N
1677081235.7,286047002.6,N
1677081255.6,286047000.2,N
1677081275.4,286047002.4,N
1677081295.3,286047000.1,N
1677081315.1,286047000.1,N
1677081316.0,286047000.1,N
1677081335.8,286047000.4,N
1677081355.7,286047000.5,N
1677081375.5,286047000.6,N
1677081395.3,286047000.7,N
1677081415.2,286046998.2,N
1677081435.0,286047001.0,N
1677081435.9,286047001.0,N
1677081455.8,286047000.5,N
1677081475.6,286047000.7,N
1677081495.4,286047002.6,N
1677081515.3,286047002.8,N
1677081535.1,286047000.1,N
1677081555.8,286047001.9,N
1677081575.7,286046999.7,N
1677081595.5,286047002.0,N
